Regional Weather Roundup
Issued by NWS Jackson, KY

Home | Current Version | Previous Version | Text Only | Print | Product List | Glossary Off
Versions: 1 2 3 4 5 6 7 8 9 10 11 12 13 14 15 16 17 18 19 20 21 22 23 24 25 26 27 28 29 30 31 32 33 34 35 36 37 38 39 40 41 42 43 44 45 46 47 48 49 50

000
ASUS43 KJKL 271910
RWRJKL

EAST KENTUCKY HOURLY WEATHER ROUNDUP
NATIONAL WEATHER SERVICE JACKSON KY
300 PM EDT MON JUL 27 2015

NOTE: "FAIR" INDICATES FEW OR NO CLOUDS BELOW 12,000 FEET WITH
NO SIGNIFICANT WEATHER AND/OR OBSTRUCTIONS TO VISIBILITY.

* THESE REPORTS ARE NOT UNDER NWS QUALITY CONTROL AND MAY NOT
  REPORT WEATHER SUCH AS PRECIPITATION AND FOG.

KYZ079-080-083-085-087-088-110-112-115-119-120-272000
...EASTERN KENTUCKY...

CITY           SKY/WX    TMP DP  RH WIND       PRES   REMARKS
JACKSON        MOSUNNY   85  72  65 S3        30.01F HX  91
LONDON         PTSUNNY   86  69  56 W10       30.01F HX  90
SOMERSET*      PTSUNNY   86  68  54 NW7       30.01F
MONTICELLO*    PTSUNNY   91  72  53 CALM      30.02F HX  98
WILLIAMSBURG*  MOSUNNY   81  77  89 N3        30.01F
MIDDLESBORO*   CLOUDY    86  72  64 CALM      30.01F HX  92
HAZARD APT*    PTCLDY    86  73  66 S5        30.01F HX  93
BLACK MTN*       N/A     75  68  78 N1          N/A
PIKEVILLE APT* MOSUNNY   75  73  94 SE5       30.03F
BIG SANDY*     PTCLDY    84  74  70 NE5       30.02S HX  91
MOREHEAD APT*  PTCLDY    84  70  61 VRB3      30.01F
$$

KYZ035-036-041-042-044-050-067-078-099-272000
...CENTRAL KENTUCKY...

CITY           SKY/WX    TMP DP  RH WIND       PRES   REMARKS
MT STERLING*   MOSUNNY   86  73  66 SW3       30.00F HX  93
FLEMING/MASON* PTSUNNY   84  73  70 CALM      30.00F HX  91
DANVILLE*      PTSUNNY   84  73  70 NW5       30.02S HX  91
RICHMOND*      PTSUNNY   84  72  65 NW3       30.00S
LEXINGTON      MOSUNNY   85  74  69 W6        30.00F HX  92
FRANKFORT      MOSUNNY   85  72  65 SW8       29.97F HX  91
$$

KYZ091>093-OHZ055-061-077-WVZ005-015-034-035-042-272000
...SOUTHERN OHIO/WEST VIRGINIA...

CITY           SKY/WX    TMP DP  RH WIND       PRES   REMARKS
COVINGTON      PTSUNNY   85  71  63 CALM      29.98F HX  90
COLUMBUS       CLOUDY    83  68  60 CALM      29.99F
DAYTON         CLOUDY    80  73  79 NE8       30.01F
WILMINGTON     CLOUDY    76  69  79 SE5       30.01F
HUNTINGTON     PTSUNNY   84  73  69 SW5       29.98F HX  90
CHARLESTON     PTSUNNY   86  72  62 VRB3      29.99F HX  92
PINEVILLE*     PTSUNNY   81  72  74 MISG      30.10F
BECKLEY        PTSUNNY   79  66  64 CALM      30.09F
BLUEFIELD      PTSUNNY   83  66  56 N5        30.12F
$$

VAZ002-007-008-TNZ017-027-036-066-071-272000
...SOUTHWEST VIRGINIA/EAST TENNESSEE...

CITY           SKY/WX    TMP DP  RH WIND       PRES   REMARKS
WISE*          CLOUDY    75  66  73 SE3       30.12S
ABINGDON*      LGT RAIN  79  71  76 CALM      30.09S
BRISTOL        PTSUNNY   87  68  52 VRB3      30.03F HX  90
KNOXVILLE      PTSUNNY   90  70  51 NW6       29.99F HX  95
OAK RIDGE      PTSUNNY   89  72  56 CALM      30.01F HX  96
CROSSVILLE     MOSUNNY   86  68  54 W5        30.06F
NASHVILLE      MOSUNNY   93  73  52 VRB7      29.98F HX 102
$$

...KEY TO REMARKS...
VSB - VISIBILITY IN MILES
WCI - WIND CHILL INDEX
HX  - HEAT INDEX

$$



USA.gov is the U.S. government's official web portal to all federal, state and local government web resources and services.